Location: Casteau
(50.5142°N, 4.0161°E)
Time: 06:07:42
(UTC+00:00)

Transit 2A - Pass Details

Date: 05 August 2021
Orbit: 594 x 964 km, 66.7° (Epoch: 24 September)

Event Time Altitude Azimuth Distance (km) Brightness Sun altitude
Rises 08:07:34 0° 284° (WNW) 2,955 8.5 34.6°
Reaches altitude 10° 08:10:44 10° 308° (NW) 2,108 7.9 35.1°
Maximum altitude 08:13:32 15° 344° (NNW) 1,837 7.8 35.5°
Drops below altitude 10° 08:16:28 10° 20° (NNE) 2,241 8.5 35.9°
Sets 08:20:00 0° 43° (NE) 3,255 9.5 36.5°
